Regional Weather Roundup
Issued by NWS

Home | Current Version | Previous Version | Text Only | Print | Product List | Glossary Off
Versions: 1 2 3 4 5 6 7 8 9 10 11 12 13 14 15 16 17 18 19 20 21 22 23 24 25 26 27 28 29 30 31 32 33 34 35 36 37 38 39 40 41 42 43 44 45 46 47 48 49 50

669
ASUS45 KBOU 030307
RWRCO

WEATHER ROUNDUP FOR COLORADO
NATIONAL WEATHER SERVICE DENVER/BOULDER CO
900 PM MDT MON MAY 02 2016

NOTE: "FAIR" INDICATES FEW OR NO CLOUDS BELOW 12000 FEET WITH NO
SIGNIFICANT WEATHER AND/OR OBSTRUCTIONS TO VISIBILITY.

COZ001>005-013-030-031-030400-
...NORTHWEST COLORADO...

CITY           SKY/WX    TMP DP  RH WIND       PRES   REMARKS
CRAIG          FAIR      45  27  49 CALM      30.19R
HAYDEN         FAIR      48  21  34 NW3       30.19R
MEEKER         FAIR      47  29  49 NE3       30.19R
MOUNT WERNER   NOT AVBL
STEAMBOAT SPGS FAIR      46  25  43 NW5       30.20R
WALDEN         FAIR      36  18  48 NW6       30.25R
$$

COZ006>008-011-030400-
...WEST CENTRAL VALLEYS...

CITY           SKY/WX    TMP DP  RH WIND       PRES   REMARKS
GRAND JUNCTION FAIR      56  35  45 N7        30.13R
MONTROSE       FAIR      52  31  44 CALM      30.17R
EAGLE          FAIR      54  23  30 NE7       30.19R
RIFLE          FAIR      52  27  38 W6        30.14R
DELTA          NOT AVBL
NUCLA          NOT AVBL
$$

COZ017>023-064>068-030400-
...SOUTHWEST COLORADO...

CITY           SKY/WX    TMP DP  RH WIND       PRES   REMARKS
DURANGO        FAIR      44  34  67 N7        30.20R
CORTEZ         FAIR      47  39  74 VRB5      30.19R
PAGOSA SPRINGS FAIR      42  34  74 E5        30.24R
TELLURIDE      FAIR      37  33  86 SE5       30.31R
WOLF CREEK PAS LGT SNOW  25  25 100 CALM      30.38R
$$

COZ009-010-012-014-032>034-037-058>063-030400-
...CENTRAL COLORADO...

CITY           SKY/WX    TMP DP  RH WIND       PRES   REMARKS
ASPEN          CLOUDY    44  27  51 SW7       30.21R
BUENA VISTA    FAIR      39  32  76 W6        30.19R
COPPER MTN     NOT AVBL
BERTHOUD PASS  MOCLDY    21  10  63 NW28G35   30.31R HAZE    WCI   3
COTTONWOOD PAS FAIR      41  18  38 W6        30.26R
GUNNISON       FAIR      46  21  36 NE5       30.22R
KREMMLING      FAIR      46  19  34 N5        30.22R
LEADVILLE      FAIR      34  22  61 N6        30.26R WCI  29
MONARCH PASS   FAIR      27  25  93 MISG      30.43S
SALIDA         FAIR      47  29  50 SW7       30.25R
SUNLIGHT       NOT AVBL
WILKERSON PASS FAIR      32  19  59 N10G17    30.33R WCI  24
$$

COZ069>075-030400-
...SAN LUIS VALLEY/SANGRE DE CRISTO MOUNTAINS...

CITY           SKY/WX    TMP DP  RH WIND       PRES   REMARKS
ALAMOSA        FAIR      43  32  65 SW14      30.18R
LA VETA PASS   MOCLDY    32  30  93 S8        30.26S WCI  25
SAGUACHE       FAIR      45  30  57 CALM      30.19R
$$

COZ035-036-038>040-030400-
...NORTHERN COLORADO FRONT RANGE...

CITY           SKY/WX    TMP DP  RH WIND       PRES   REMARKS
DENVER INTL AP FAIR      52  22  30 NW3       30.13R
DMNS CITY PARK   N/A     50  26  40 E2G12     30.13R
AURORA         FAIR      50  26  39 E1        30.15R
FRONT RANGE AP PTCLDY    48  25  40 CALM      30.12S
ERIE MUNI ARPT FAIR      45  37  71 CALM      30.12R
BOULDER MUN AP FAIR      50  32  50 SW6       30.13R
CENTENNIAL     FAIR      48  29  47 CALM      30.14R
BROOMFIELD     PTCLDY    50  28  43 W3        30.14R
FORT COLLINS   FAIR      54  28  37 CALM      30.13R
LONGMONT       FAIR      46  34  63 W7        30.14R
$$

COZ041-046-047-076>085-087-088-030400-
...PIKES PEAK/PALMER DIVIDE AND SOUTHERN FOOTHILLS...

CITY           SKY/WX    TMP DP  RH WIND       PRES   REMARKS
COLO. SPRINGS  FAIR      46  24  42 NE6       30.17R
A. F. ACADEMY  FAIR      39  23  52 N8        30.17R
SCHRIEVER AFB  NOT AVBL
ELLICOTT       FAIR     N/A N/A N/A NE7       30.15R
FALCON         FAIR      41  24  49 N8        30.18R
FORT CARSON    FAIR      50  28  43 SW2       30.14R
LIMON          FAIR      39  29  67 CALM      30.13R
MONUMENT HILL  FAIR      37  28  70 SW3       30.19R
TRINIDAD       FAIR      48  30  49 SE3       30.14R
$$

COZ042>045-048>051-090-091-030400-
...NORTHEAST COLORADO...

CITY           SKY/WX    TMP DP  RH WIND       PRES   REMARKS
GREELEY ARPT   FAIR      55  27  33 NW10      30.11R
AKRON          FAIR      45  31  58 SW10      30.07S
BURLINGTON     FAIR      46  30  53 SW5       30.09R
WRAY           NOT AVBL
STERLING       CLOUDY    48  36  61 W9        30.03S
HOLYOKE        NOT AVBL
FORT MORGAN    FAIR      51  30  44 N6        30.09R
$$

COZ086-089-092>099-030400-
...SOUTHEAST COLORADO...

CITY           SKY/WX    TMP DP  RH WIND       PRES   REMARKS
PUEBLO         FAIR      51  33  50 E5        30.10R
LA JUNTA       FAIR      51  31  46 SW6       30.09R
LAMAR          FAIR      43  33  68 S8        30.07R
SPRINGFIELD      N/A     42  32  67 SW3       30.12R
$$




USA.gov is the U.S. government's official web portal to all federal, state and local government web resources and services.